This is the latest recevied weather packets stored in our database for station/object KI4BSX. If no packets are shown the sender has not sent any weather packets the latest 10 day(s).
| Time | Temp. | Humidity | Pressure | Rain* | Wind** | Luminosity | Snow |
|---|---|---|---|---|---|---|---|
| 1777751923 | 20° C | 65% | 1013.9 hPa | 0 mm | - | - | - |
| 1777751619 | 20.56° C | 65% | 1013.8 hPa | 0 mm | - | - | - |
| 1777751316 | 19.44° C | 68% | 1013.6 hPa | 0 mm | - | - | - |
| 1777751013 | 18.89° C | 69% | 1013.7 hPa | 0 mm | - | - | - |
| 1777750708 | 18.33° C | 68% | 1013.9 hPa | 0 mm | - | - | - |
| 1777750406 | 18.33° C | 66% | 1013.8 hPa | 0 mm | - | - | - |
| 1777750101 | 19.44° C | 66% | 1014 hPa | 0 mm | - | - | - |
| 1777749799 | 19.44° C | 65% | 1014 hPa | 0 mm | - | - | - |
| 1777749496 | 19.44° C | 64% | 1014 hPa | 0 mm | - | - | - |
| 1777749194 | 19.44° C | 64% | 1014 hPa | 0 mm | - | - | - |
| 1777748891 | 19.44° C | 64% | 1014.1 hPa | 0 mm | - | - | - |
| 1777748588 | 20° C | 64% | 1014.3 hPa | 0 mm | - | - | - |
| 1777748283 | 20° C | 66% | 1014.2 hPa | 0 mm | - | - | - |
| 1777747979 | 20.56° C | 67% | 1014.3 hPa | 0 mm | - | - | - |
| 1777747676 | 20° C | 67% | 1014.2 hPa | 0 mm | - | - | - |
| 1777747372 | 20° C | 69% | 1014.3 hPa | 0 mm | - | - | - |
| 1777747069 | 19.44° C | 70% | 1014.3 hPa | 0 mm | - | - | - |
| 1777746765 | 18.89° C | 70% | 1014.5 hPa | 0 mm | - | - | - |
| 1777746460 | 18.33° C | 71% | 1014.6 hPa | 0 mm | - | - | - |
| 1777746156 | 17.78° C | 70% | 1014.8 hPa | 0 mm | - | - | - |
| 1777745852 | 18.33° C | 70% | 1014.8 hPa | 0 mm | - | - | - |
| 1777745551 | 18.89° C | 69% | 1014.5 hPa | 0 mm | - | - | - |
| 1777745248 | 19.44° C | 69% | 1014.7 hPa | 0 mm | - | - | - |
| 1777744946 | 19.44° C | 70% | 1014.8 hPa | 0 mm | - | - | - |
| 1777744645 | 18.89° C | 69% | 1014.8 hPa | 0 mm | - | - | - |
* Rain latest hour (hover to see other rain measurements)
** Current wind speed in m/s (hover to see current wind gust speed)